{"data":{"norad_id":52487,"epoch":"2026-05-25T03:53:32.712288Z","epoch_age_seconds":64277,"freshness":"FRESH","line1":"1 52487U 22049AN  26145.16218417  .00001045  00000+0  83708-4 0  9990","line2":"2 52487  53.2133  65.9268 0001434 103.7876 256.3275 15.08845452225174","mean_motion":15.08845452,"eccentricity":0.0001434,"inclination_deg":53.2133,"raan_deg":65.9268,"arg_perigee_deg":103.7876,"mean_anomaly_deg":256.3275,"bstar":8.3708e-5,"rev_number":22517,"period_min":95.437209827637,"perigee_km":538.7347027733,"apogee_km":540.71874608947,"semimajor_km":6917.8637244314,"source":"CELESTRAK","updated_at":"2026-05-25T13:38:17.156893Z"}}